C/2018 A1 ( PanSTARRS )

Japanese version
Home page
Updated on May 21, 2018

---------------------------------------------------------------------

* Profile

Discovery Date January 6, 2018
Magnitude 19.1 mag
Discoverer Pan-STARRS 1 telescope (Haleakala)

* Pictures

* Orbital Elements

Epoch 2017 Oct. 14.0 TT = JDT 2458040.5
T 2017 Oct. 20.42980 TT                                 MPCW
q   2.4193730            (2000.0)            P               Q
n   0.00772968     Peri.   96.38513     +0.13214614     -0.93842370
a  25.3334922      Node   336.62190     +0.21959276     +0.34175297
e   0.9044990      Incl.   53.56006     +0.96660044     +0.05065442
P 128
From 108 observations 2018 Jan. 6-Mar. 19, mean residual 0".4.

* Magnitudes Graph

        m1 = 12.5 + 5 log d + 10.0 log r

---------------------------------------------------------------------

The orbital elements are published on M.P.E.C. 2018-F152.
The magnitudes graphs are made with Comet for Windows.

---------------------------------------------------------------------

Copyright(C) Seiichi Yoshida (comet@aerith.net). All rights reserved.